[[{"header":{"parameterUnit":"m.s-1","parameterCategory":1,"la1":30.2991,"la2":30.254,"lo1":-89.0895,"lo2":-89.0444,"dy":0.0017,"dx":0.0017,"nx":28,"ny":28,"refTime":"2026-01-09T09:00:00:Z","depth":0,"parameterNumber":2,"parameterNumberName":"U-component_of_WINDS"},"data":[0,0,0,0,0,0,0,0,0,0,0,0,0,0,0,0,0,0,0,0,0,0,0,0,0,0,0,0,0,0,0,0,0,0,0,0,0,0,0,0,0,0,0,0,0,0,0,0,0,0,0,0,0,0,0,0,0,0,1.2775,1.2775,0,1.2753,1.2753,1.2753,1.2731,1.2731,1.2731,1.2731,1.2707,1.2706,1.2706,0,0,0,0,0,0,0,0,0,0,0,0,0,1.2798,1.2798,1.2775,1.2775,1.2774,1.2753,1.2753,1.2753,1.2731,1.2731,1.2731,1.273,1.2707,1.2706,1.2706,0,0,0,0,0,0,0,0,0,0,0,0,0,1.2783,1.2798,1.2775,1.2761,1.276,1.2753,1.2753,1.2752,1.2731,1.2731,1.2731,1.273,1.2707,1.2706,1.2706,1.271,0,0,1.2704,1.2704,0,0,0,0,0,0,0,0,1.2784,1.2782,1.2764,1.2762,1.2761,1.2745,1.2752,1.2738,1.2732,1.2742,1.273,1.273,1.2719,1.2718,1.2715,1.2709,1.2708,1.2704,1.2704,1.2703,1.2703,0,0,0,0,0,0,0,1.2785,1.2783,1.2766,1.2763,1.2761,1.2756,1.2754,1.2749,1.2733,1.2741,1.274,1.2737,1.2719,1.2715,1.2714,1.2708,1.2704,1.2703,1.2703,1.2703,1.2707,1.2708,0,0,0,0,0,0,1.2788,1.2784,1.2767,1.2766,1.2772,1.2756,1.2753,1.275,1.2733,1.273,1.2738,1.2737,1.2716,1.2715,1.2713,1.2718,1.2703,1.2703,1.2702,1.2707,1.2707,1.2708,0,0,0,0,0,0,1.2789,1.2787,1.2768,1.2775,1.2772,1.2756,1.2753,1.275,1.2746,1.2731,1.2728,1.2737,1.2716,1.2714,1.2712,1.2717,1.2703,1.2702,1.2706,1.2707,1.2708,1.2728,0,0,0,0,0,0,1.279,1.2787,1.2789,1.2775,1.2771,1.2767,1.2753,1.275,1.2746,1.2744,1.2729,1.2727,1.2715,1.2713,1.2711,1.2716,1.2702,1.2706,1.2706,1.2707,1.2727,1.273,1.2732,0,0,0,0,0,1.2791,1.2795,1.2789,1.2787,1.2773,1.2767,1.2765,1.2753,1.2746,1.2748,1.2738,1.2727,1.2717,1.2713,1.2711,1.2716,1.2705,1.2706,1.2707,1.2726,1.2729,1.2732,0,0,0,0,0,0,1.2809,1.2793,1.2786,1.2786,1.2778,1.2764,1.2765,1.2756,1.275,1.2748,1.2733,1.273,1.273,1.2722,1.2718,1.272,1.271,1.271,1.2725,1.2728,1.273,1.2731,1.2701,0,0,0,0,0,1.2813,1.281,1.2796,1.2797,1.2794,1.278,1.2777,1.2769,1.276,1.2756,1.2746,1.2738,1.2733,1.273,1.2724,1.2726,1.2723,1.2729,1.2731,1.2733,1.2734,1.2736,1.2738,1.2711,1.2711,1.2711,0,0,1.2821,1.2812,1.2811,1.2801,1.2794,1.2791,1.2778,1.2775,1.2773,1.2756,1.2753,1.2746,1.2736,1.2736,1.2736,1.273,1.2741,1.2735,1.2736,1.2736,1.2737,1.274,1.2742,1.2712,1.2712,1.2712,0,0,1.2835,1.2828,1.2828,1.2822,1.2812,1.2804,1.2804,1.2791,1.2786,1.2784,1.2772,1.2769,1.276,1.2754,1.275,1.2764,1.2754,1.2763,1.2775,1.2777,1.2779,1.2781,1.2787,1.2789,1.2763,1.2763,1.2763,0,1.2846,1.2842,1.283,1.2828,1.2825,1.281,1.2812,1.2806,1.2795,1.2793,1.2787,1.2777,1.2769,1.2769,1.2772,1.2769,1.2769,1.2764,1.278,1.2782,1.2783,1.2788,1.279,1.2765,1.2764,1.2764,1.2764,0,1.2857,1.2854,1.2856,1.2847,1.2843,1.2843,1.2831,1.2829,1.2822,1.2814,1.2813,1.2803,1.2796,1.2795,1.2787,1.2794,1.2791,1.2783,1.2772,1.2787,1.2792,1.2794,1.2766,1.2766,1.2765,1.2765,0,0,1.2879,1.2865,1.2866,1.2863,1.2852,1.2849,1.2849,1.2844,1.2843,1.2836,1.2836,1.283,1.2823,1.2818,1.2809,1.2811,1.2824,1.2803,1.2802,1.2808,1.2833,1.2839,1.2842,1.2818,1.2818,1.2819,1.2834,0,1.2892,1.2891,1.2881,1.2883,1.2881,1.2868,1.2868,1.2862,1.2855,1.2853,1.2845,1.2842,1.2832,1.2829,1.2831,1.2822,1.2829,1.2821,1.2818,1.2818,1.2821,1.2844,1.285,1.2865,1.2835,1.2836,1.2836,0,1.2905,1.29,1.2903,1.2894,1.2892,1.2893,1.2887,1.2885,1.2878,1.2873,1.2869,1.286,1.286,1.285,1.285,1.2845,1.2843,1.2839,1.2839,1.2838,1.2828,1.2844,1.2869,1.2871,1.2839,1.2838,1.2838,0,1.2922,1.2917,1.2918,1.2915,1.2904,1.2905,1.29,1.2893,1.2891,1.2886,1.2885,1.288,1.2878,1.2874,1.2864,1.2858,1.2866,1.2855,1.2862,1.2862,1.2863,1.2863,1.2889,1.2862,1.2862,1.2862,1.2862,0,1.2937,1.2939,1.2926,1.2926,1.2928,1.2918,1.292,1.2914,1.2908,1.2908,1.2897,1.2897,1.2883,1.2882,1.2874,1.2876,1.2874,1.2871,1.2869,1.2872,1.2872,1.287,1.2869,1.2863,1.2863,1.2863,1.2862,0,1.2956,1.2947,1.2948,1.2938,1.2936,1.2938,1.293,1.293,1.2924,1.2924,1.2923,1.2912,1.291,1.29,1.2895,1.289,1.2895,1.289,1.2897,1.2896,1.2904,1.2903,1.2928,1.2931,1.2903,1.2903,1.2904,0,1.2965,1.2967,1.2958,1.2958,1.2954,1.2953,1.2951,1.2941,1.2939,1.2933,1.2934,1.2932,1.2929,1.2926,1.2918,1.2915,1.291,1.292,1.291,1.2913,1.2911,1.2911,1.2912,1.2921,1.2922,1.2922,1.2922,0,1.2984,1.298,1.2978,1.2975,1.2973,1.297,1.2967,1.2967,1.2956,1.2955,1.2953,1.2951,1.2947,1.2945,1.2941,1.2936,1.2928,1.2926,1.2927,1.293,1.2935,1.2933,1.2903,1.2925,1.2925,1.2925,1.2924,1.2924,1.2999,1.3,1.2995,1.2993,1.299,1.2987,1.2988,1.2982,1.298,1.2977,1.2971,1.2971,1.2965,1.2959,1.2955,1.2955,1.295,1.2952,1.2952,1.2953,1.2955,1.2935,1.2954,1.2954,1.2954,1.2954,1.2954,0,1.3017,1.3013,1.3012,1.3008,1.3007,1.3001,1.2997,1.2997,1.2996,1.2992,1.2991,1.299,1.2988,1.298,1.2978,1.2979,1.2975,1.2979,1.2979,1.2978,1.2959,1.2958,1.2982,1.2982,1.2982,1.2982,1.2982,1.2982,1.3026,1.3029,1.3024,1.3025,1.3022,1.3022,1.302,1.3018,1.3015,1.3015,1.3014,1.3009,1.3004,1.3002,1.3,1.2998,1.2998,1.3003,1.2999,1.2982,1.2979,1.2976,1.2976,1.3003,1.3003,1.3018,1.3018,1.3018]},{"header":{"parameterUnit":"m.s-1","parameterCategory":1,"la1":30.2991,"la2":30.254,"lo1":-89.0895,"lo2":-89.0444,"dy":0.0017,"dx":0.0017,"nx":28,"ny":28,"refTime":"2026-01-09T09:00:00:Z","depth":0,"parameterNumber":3,"parameterNumberName":"V-component_of_WINDS"},"data":[0,0,0,0,0,0,0,0,0,0,0,0,0,0,0,0,0,0,0,0,0,0,0,0,0,0,0,0,0,0,0,0,0,0,0,0,0,0,0,0,0,0,0,0,0,0,0,0,0,0,0,0,0,0,0,0,0,0,-6.122,-6.1221,0,-6.1394,-6.1396,-6.1398,-6.1405,-6.1403,-6.1401,-6.1399,-6.1575,-6.1582,-6.1588,0,0,0,0,0,0,0,0,0,0,0,0,0,-6.0893,-6.0899,-6.1219,-6.1222,-6.1224,-6.1394,-6.1396,-6.1398,-6.1406,-6.1403,-6.1401,-6.1399,-6.1573,-6.1581,-6.1589,0,0,0,0,0,0,0,0,0,0,0,0,0,-6.1048,-6.0901,-6.1219,-6.1248,-6.1252,-6.1393,-6.1396,-6.1399,-6.1406,-6.1403,-6.14,-6.1397,-6.157,-6.158,-6.159,-6.1712,0,0,-6.162,-6.1624,0,0,0,0,0,0,0,0,-6.1039,-6.106,-6.1242,-6.1246,-6.1251,-6.1375,-6.1345,-6.1504,-6.1407,-6.1348,-6.1399,-6.1396,-6.1511,-6.1525,-6.1565,-6.1721,-6.1728,-6.1621,-6.1627,-6.1631,-6.1634,0,0,0,0,0,0,0,-6.1028,-6.1052,-6.1288,-6.1244,-6.125,-6.1253,-6.1271,-6.1376,-6.1444,-6.1353,-6.1354,-6.1374,-6.1513,-6.1555,-6.1569,-6.1731,-6.1621,-6.1629,-6.1635,-6.1639,-6.2001,-6.2004,0,0,0,0,0,0,-6.1012,-6.1043,-6.1283,-6.1294,-6.1136,-6.1261,-6.1282,-6.1338,-6.1443,-6.1456,-6.1377,-6.1374,-6.154,-6.1557,-6.1575,-6.1729,-6.1631,-6.164,-6.1646,-6.1997,-6.2001,-6.2005,0,0,0,0,0,0,-6.1005,-6.1034,-6.1276,-6.1169,-6.12,-6.127,-6.1333,-6.1343,-6.1386,-6.1462,-6.1474,-6.1408,-6.1538,-6.1561,-6.1679,-6.1735,-6.1645,-6.1654,-6.1993,-6.1998,-6.2003,-6.2034,0,0,0,0,0,0,-6.0996,-6.1031,-6.1078,-6.117,-6.1206,-6.1377,-6.1337,-6.1349,-6.1403,-6.1401,-6.1494,-6.1506,-6.1537,-6.1665,-6.1689,-6.1747,-6.1661,-6.1988,-6.1995,-6.2002,-6.2029,-6.204,-6.205,0,0,0,0,0,-6.0984,-6.1078,-6.108,-6.1109,-6.1266,-6.138,-6.14,-6.1436,-6.1407,-6.1456,-6.1505,-6.1503,-6.1725,-6.1677,-6.1704,-6.1766,-6.1985,-6.1993,-6.2001,-6.2024,-6.2038,-6.205,0,0,0,0,0,0,-6.0988,-6.109,-6.1094,-6.122,-6.1292,-6.1381,-6.1443,-6.1449,-6.1529,-6.1524,-6.1563,-6.1584,-6.1702,-6.1746,-6.169,-6.1892,-6.1851,-6.1866,-6.1859,-6.1873,-6.1884,-6.1871,-6.167,0,0,0,0,0,-6.1004,-6.1089,-6.1173,-6.1277,-6.1313,-6.1372,-6.1423,-6.1445,-6.152,-6.1549,-6.1607,-6.168,-6.1766,-6.1822,-6.1905,-6.2035,-6.2057,-6.2091,-6.2102,-6.2111,-6.2122,-6.2198,-6.2215,-6.2032,-6.2032,-6.2032,0,0,-6.1037,-6.1104,-6.1154,-6.128,-6.1337,-6.1425,-6.1397,-6.1489,-6.1555,-6.1563,-6.1679,-6.1725,-6.1808,-6.1934,-6.1992,-6.1974,-6.2178,-6.2121,-6.2127,-6.2135,-6.2208,-6.2226,-6.2241,-6.2038,-6.2037,-6.2036,0,0,-6.1143,-6.1201,-6.1295,-6.1355,-6.1444,-6.1483,-6.1506,-6.1596,-6.1627,-6.1745,-6.1754,-6.1832,-6.1979,-6.204,-6.209,-6.2224,-6.2226,-6.225,-6.2306,-6.2379,-6.2393,-6.2406,-6.2456,-6.2474,-6.2261,-6.2261,-6.2261,0,-6.1172,-6.1305,-6.1342,-6.1437,-6.1493,-6.1507,-6.1604,-6.1659,-6.177,-6.1809,-6.1787,-6.1976,-6.2032,-6.2174,-6.2208,-6.2247,-6.2275,-6.2239,-6.2388,-6.2402,-6.2414,-6.2463,-6.2481,-6.2264,-6.2264,-6.2263,-6.2263,0,-6.1338,-6.143,-6.1496,-6.1606,-6.1669,-6.1764,-6.1817,-6.1877,-6.1894,-6.1936,-6.2058,-6.2127,-6.2227,-6.2262,-6.2278,-6.2408,-6.2394,-6.238,-6.234,-6.2434,-6.248,-6.2498,-6.2267,-6.2267,-6.2266,-6.2265,0,0,-6.1448,-6.1582,-6.1605,-6.1657,-6.1758,-6.183,-6.1927,-6.2026,-6.2078,-6.2155,-6.2239,-6.2365,-6.2354,-6.2411,-6.2435,-6.2499,-6.2604,-6.2478,-6.248,-6.25,-6.2754,-6.2765,-6.2786,-6.2606,-6.261,-6.2613,-6.2748,0,-6.1567,-6.174,-6.1779,-6.1928,-6.2016,-6.2032,-6.2117,-6.2189,-6.2232,-6.2312,-6.2359,-6.2449,-6.2426,-6.2462,-6.2526,-6.2578,-6.2656,-6.2568,-6.2685,-6.2689,-6.2665,-6.281,-6.2821,-6.2945,-6.2766,-6.2769,-6.2771,0,-6.1727,-6.1811,-6.197,-6.2064,-6.2102,-6.2177,-6.2274,-6.235,-6.2433,-6.246,-6.2526,-6.2544,-6.2647,-6.2602,-6.2746,-6.2685,-6.2736,-6.2769,-6.2775,-6.2788,-6.2736,-6.2828,-6.2985,-6.3004,-6.28,-6.2797,-6.2795,0,-6.1794,-6.1947,-6.2063,-6.2106,-6.2218,-6.2271,-6.232,-6.24,-6.2459,-6.2543,-6.2582,-6.2676,-6.2728,-6.2801,-6.2845,-6.2808,-6.2987,-6.2945,-6.3013,-6.3012,-6.3049,-6.3047,-6.3218,-6.308,-6.308,-6.3079,-6.3079,0,-6.1923,-6.2019,-6.2095,-6.2166,-6.2277,-6.2321,-6.2429,-6.2478,-6.255,-6.2632,-6.2651,-6.2728,-6.2781,-6.2865,-6.29,-6.3015,-6.3037,-6.3063,-6.3071,-6.3062,-6.3059,-6.3096,-6.3089,-6.3084,-6.3083,-6.3082,-6.3081,0,-6.2016,-6.207,-6.2198,-6.2295,-6.2322,-6.2399,-6.2482,-6.2553,-6.2598,-6.2701,-6.2728,-6.2798,-6.2899,-6.295,-6.3075,-6.3099,-6.3229,-6.3231,-6.3202,-6.3205,-6.3272,-6.3265,-6.3474,-6.3505,-6.3344,-6.3345,-6.3347,0,-6.2095,-6.217,-6.2277,-6.2334,-6.2385,-6.2476,-6.2537,-6.2585,-6.2648,-6.2751,-6.281,-6.2912,-6.2996,-6.3156,-6.3218,-6.3315,-6.3321,-6.3387,-6.3335,-6.3325,-6.3324,-6.332,-6.3329,-6.3396,-6.3398,-6.3399,-6.34,0,-6.2229,-6.2254,-6.2341,-6.2441,-6.2514,-6.2593,-6.2671,-6.2717,-6.2778,-6.2848,-6.2953,-6.3018,-6.3148,-6.325,-6.3352,-6.3402,-6.3413,-6.3416,-6.3438,-6.3429,-6.341,-6.3424,-6.3229,-6.3411,-6.341,-6.3409,-6.3409,-6.3408,-6.2319,-6.2389,-6.2476,-6.2574,-6.2639,-6.2713,-6.2786,-6.2841,-6.293,-6.304,-6.3063,-6.3174,-6.3259,-6.3397,-6.3452,-6.354,-6.3526,-6.3556,-6.3564,-6.3571,-6.3575,-6.3396,-6.3558,-6.3558,-6.3558,-6.3558,-6.3557,0,-6.2457,-6.2515,-6.2605,-6.2716,-6.2794,-6.2799,-6.2887,-6.2952,-6.305,-6.3129,-6.3213,-6.3335,-6.3435,-6.3507,-6.3609,-6.3666,-6.3674,-6.3692,-6.3688,-6.3701,-6.3581,-6.3553,-6.3684,-6.3684,-6.3684,-6.3684,-6.3684,-6.3684,-6.2538,-6.2657,-6.2693,-6.2845,-6.2902,-6.3013,-6.3064,-6.3133,-6.3196,-6.3332,-6.3417,-6.3463,-6.354,-6.3649,-6.3742,-6.376,-6.3798,-6.3816,-6.3835,-6.3722,-6.3708,-6.3696,-6.367,-6.3824,-6.3824,-6.3948,-6.3949,-6.395]}]]